Tracking 19847 objects as of 16-Sep-2019
HD Live streaming from Space Station
objects crossing your sky now

FENGYUN 1C DEB

Track FENGYUN 1C DEB now!
10-day predictions


NORAD ID: 31003
Int'l Code: 1999-025BCV
Perigee: 824.5 km
Apogee: 894.4 km
Inclination: 99.0 °
Period: 102.0 minutes
Semi major axis: 7230 km
RCS: 0.0252 m2 (small)
Launch date: May 10, 1999
Source: People's Republic of China (PRC)
Launch site: Taiyaun Space Center, China (TSC)

Note: This is SATELLITE DEBRIS
aabbcc
Your satellite tracking list
Your tracking list is empty




NASA's NSSDC Master Catalog

Two Line Element Set (TLE):
1 31003U 99025BCV 19258.07510217 +.00000418 +00000-0 +25013-3 0  9997
2 31003 098.9965 301.4590 0048340 217.4982 142.2814 14.12072962642366
Source of the keplerian elements: AFSPC